Tracking 27405 objects as of 1-Jun-2023
HD Live streaming from Space Station
objects crossing your sky now

ATLAS 28E DEB

Track ATLAS 28E DEB now!
10-day predictions


NORAD ID: 20575
Int'l Code: 1990-031G
Perigee: 586.4 km
Apogee: 633.3 km
Inclination: 90.3 °
Period: 96.7 minutes
Semi major axis: 6980 km
RCS: Unknown
Launch date: April 11, 1990
Source: United States (US)
Launch site: AIR FORCE WESTERN TEST RANGE (AFWTR)

Note: This is SATELLITE DEBRIS
Your satellite tracking list
Your tracking list is empty




NASA's NSSDC Master Catalog

Two Line Element Set (TLE):
1 20575U 90031G   23151.69664168  .00003279  00000-0  34801-3 0  9990
2 20575  90.3419 248.4354 0033578 141.4995 218.8638 14.88479768228871
Source of the keplerian elements: AFSPC